WV5G-13 Weather Reports


Display with metric or nautical units.
time (UTC)temp
F
wind
direction
speed
MPH
gust
MPH
rain 1hr
in
rain 24hr
in
rain mn
in
humidity
%
barometer
mb
20260507010258 56 52 13.0 20.0 0.00 0.00 0.00 50 1013.7
20260507005756 56 54 15.0 24.0 0.00 0.00 0.00 49 1013.3
20260507005252 57 58 15.0 23.0 0.00 0.00 0.00 49 1013.3
20260507004749 57 64 12.0 20.0 0.00 0.00 0.00 48 1013.2
20260507004246 58 71 10.0 18.0 0.00 0.00 0.00 47 1013.2
20260507003742 58 73 8.0 19.0 0.00 0.00 0.00 48 1013.3
20260507003238 57 63 15.0 24.0 0.00 0.00 0.00 48 1013.0
20260507002734 58 60 14.0 22.0 0.00 0.00 0.00 47 1013.1
20260507002230 58 83 17.0 23.0 0.00 0.00 0.00 46 1013.0
20260507001727 59 87 13.0 18.0 0.00 0.00 0.00 46 1013.1
20260507001225 58 61 15.0 23.0 0.00 0.00 0.00 46 1012.9
20260507000721 58 44 18.0 26.0 0.00 0.00 0.00 47 1012.9
20260507000216 58 69 25.0 26.0 0.00 0.00 0.00 47 1012.3
20260506235714 60 91 12.0 19.0 0.00 0.00 0.00 45 1012.8
20260506235209 59 97 16.0 16.0 0.00 0.00 0.00 46 1012.5
20260506234706 59 96 11.0 19.0 0.00 0.00 0.00 46 1012.2
20260506234204 59 54 15.0 22.0 0.00 0.00 0.00 46 1012.3
20260506233701 59 72 14.0 27.0 0.00 0.00 0.00 46 1012.6
20260506233157 59 99 14.0 20.0 0.00 0.00 0.00 46 1012.8
20260506232654 60 92 14.0 18.0 0.00 0.00 0.00 45 1012.8
20260506232149 59 72 11.0 17.0 0.00 0.00 0.00 46 1012.7
20260506231646 59 97 13.0 16.0 0.00 0.00 0.00 47 1012.8
20260506231145 59 85 15.0 22.0 0.00 0.00 0.00 47 1012.7
20260506230641 59 73 15.0 19.0 0.00 0.00 0.00 47 1012.8
20260506230138 59 68 14.0 26.0 0.00 0.00 0.00 46 1012.7
20260506225635 59 72 11.0 22.0 0.00 0.00 0.00 47 1012.7
20260506225131 59 94 5.0 16.0 0.00 0.00 0.00 46 1012.6
20260506224628 59 113 13.0 24.0 0.00 0.00 0.00 46 1012.7
20260506224124 59 77 14.0 16.0 0.00 0.00 0.00 47 1013.0
20260506223621 58 79 11.0 21.0 0.00 0.00 0.00 47 1012.8
20260506223117 59 71 13.0 19.0 0.00 0.00 0.00 47 1012.7
20260506222614 58 102 19.0 21.0 0.00 0.00 0.00 48 1012.9
20260506222110 58 87 16.0 24.0 0.00 0.00 0.00 48 1013.0
20260506221608 59 63 23.0 26.0 0.00 0.00 0.00 47 1012.8
20260506221106 57 79 8.0 18.0 0.00 0.00 0.00 49 1012.8
20260506220602 59 76 17.0 24.0 0.00 0.00 0.00 47 1012.7
20260506220057 58 42 13.0 22.0 0.00 0.00 0.00 49 1012.8
20260506215554 57 63 15.0 27.0 0.00 0.00 0.00 49 1012.9
20260506215050 57 66 15.0 23.0 0.00 0.00 0.00 50 1012.8
20260506214547 57 64 19.0 33.0 0.00 0.00 0.00 50 1013.2
20260506214044 57 80 24.0 34.0 0.00 0.00 0.00 50 1012.9
20260506213543 58 79 15.0 25.0 0.00 0.00 0.00 49 1012.9
20260506213040 56 69 15.0 25.0 0.00 0.00 0.00 51 1013.2
20260506212536 58 75 14.0 21.0 0.00 0.00 0.00 49 1013.2
20260506212031 59 45 25.0 29.0 0.00 0.00 0.00 48 1013.1
20260506211527 59 51 9.0 20.0 0.00 0.00 0.00 48 1013.3
20260506211025 57 79 13.0 20.0 0.00 0.00 0.00 51 1013.2
20260506210521 56 87 15.0 25.0 0.00 0.00 0.00 51 1013.2
20260506210018 57 76 12.0 22.0 0.00 0.00 0.00 50 1013.3
20260506205514 58 64 21.0 21.0 0.00 0.00 0.00 49 1013.2
20260506205010 58 122 9.0 24.0 0.00 0.00 0.00 49 1013.2
20260506204508 58 108 12.0 21.0 0.00 0.00 0.00 48 1013.3
20260506204004 57 101 14.0 24.0 0.00 0.00 0.00 51 1013.1
20260506203503 56 58 19.0 29.0 0.00 0.00 0.00 50 1013.5
20260506202958 60 72 25.0 43.0 0.00 0.00 0.00 46 1013.3
20260506202456 60 82 11.0 22.0 0.00 0.00 0.00 46 1013.3
20260506201947 59 127 19.0 23.0 0.00 0.00 0.00 47 1013.0
20260506201444 58 88 8.0 20.0 0.00 0.00 0.00 48 1013.1
20260506200941 59 66 15.0 25.0 0.00 0.00 0.00 47 1012.9
20260506200437 60 80 20.0 20.0 0.00 0.00 0.00 45 1013.3
20260506195933 58 93 8.0 20.0 0.00 0.00 0.00 48 1013.2
20260506195431 56 115 13.0 22.0 0.00 0.00 0.00 50 1013.1
20260506194927 57 117 11.0 20.0 0.00 0.00 0.00 48 1013.5
20260506194424 58 107 9.0 15.0 0.00 0.00 0.00 48 1013.5
20260506193921 56 46 11.0 14.0 0.00 0.00 0.00 52 1013.6
20260506193419 56 96 7.0 13.0 0.00 0.00 0.00 51 1013.6
20260506192915 58 98 11.0 19.0 0.00 0.00 0.00 48 1013.6
20260506192412 58 21 13.0 18.0 0.00 0.00 0.00 49 1013.7
20260506191909 57 70 10.0 17.0 0.00 0.00 0.00 50 1013.8
20260506191405 55 61 9.0 18.0 0.00 0.00 0.00 52 1013.7
20260506190902 55 86 9.0 21.0 0.00 0.00 0.00 51 1013.8
20260506190358 58 75 10.0 15.0 0.00 0.00 0.00 49 1013.7
20260506185855 58 88 11.0 16.0 0.00 0.00 0.00 50 1013.6
20260506185352 57 47 14.0 22.0 0.00 0.00 0.00 52 1013.5
20260506184849 54 63 16.0 17.0 0.00 0.00 0.00 54 1013.9
20260506184346 54 98 16.0 17.0 0.00 0.00 0.00 55 1014.1
20260506183844 55 85 11.0 17.0 0.00 0.00 0.00 53 1014.2
20260506183339 56 101 17.0 18.0 0.00 0.00 0.00 52 1014.0
20260506182836 56 99 6.0 16.0 0.00 0.00 0.00 52 1014.2
20260506182333 54 117 10.0 18.0 0.00 0.00 0.00 56 1014.3
20260506181831 53 89 11.0 18.0 0.00 0.00 0.00 56 1014.8
20260506181329 55 55 12.0 19.0 0.00 0.00 0.00 54 1014.2
20260506180825 53 29 7.0 12.0 0.00 0.00 0.00 56 1014.3
20260506180322 52 113 8.0 18.0 0.00 0.00 0.00 58 1014.7
20260506175818 52 111 9.0 17.0 0.00 0.00 0.00 57 1014.6
20260506175315 54 66 15.0 20.0 0.00 0.00 0.00 55 1014.6
20260506174812 53 303 0.0 11.0 0.00 0.00 0.00 57 1014.5
20260506174309 53 88 6.0 17.0 0.00 0.00 0.00 58 1015.0
20260506173807 51 67 11.0 16.0 0.00 0.00 0.00 60 1014.7
20260506173303 52 91 9.0 17.0 0.00 0.00 0.00 59 1014.7
20260506172800 53 66 5.0 15.0 0.00 0.00 0.00 57 1014.8
20260506172257 54 83 15.0 22.0 0.00 0.00 0.00 57 1014.5
20260506171755 52 63 9.0 17.0 0.00 0.00 0.00 59 1014.6
20260506171251 52 42 13.0 19.0 0.00 0.00 0.00 59 1014.7
20260506170749 52 52 5.0 18.0 0.00 0.00 0.00 60 1014.5
20260506170245 52 82 5.0 18.0 0.00 0.00 0.00 59 1014.6
20260506165744 52 84 11.0 19.0 0.00 0.00 0.00 59 1014.7
20260506165241 53 100 11.0 16.0 0.00 0.00 0.00 59 1014.5
20260506164738 51 89 8.0 17.0 0.00 0.00 0.00 61 1014.5
20260506164235 51 54 15.0 22.0 0.00 0.00 0.00 60 1014.7
20260506163732 50 60 14.0 17.0 0.00 0.00 0.00 63 1014.6
20260506163226 52 66 15.0 16.0 0.00 0.00 0.00 60 1014.5
20260506162723 50 94 10.0 14.0 0.00 0.00 0.00 62 1014.3
20260506162220 49 73 5.0 16.0 0.00 0.00 0.00 63 1014.6
20260506161712 51 109 5.0 15.0 0.00 0.00 0.00 61 1014.6
20260506161209 50 65 10.0 15.0 0.00 0.00 0.00 62 1014.5
20260506160707 50 32 5.0 16.0 0.00 0.00 0.00 63 1014.1
20260506160203 49 111 14.0 18.0 0.00 0.00 0.00 64 1014.2
20260506155702 50 87 10.0 19.0 0.00 0.00 0.00 64 1014.0
20260506155158 48 80 9.0 14.0 0.00 0.00 0.00 65 1013.9
20260506153300 47 81 9.0 14.0 0.00 0.00 0.00 66 1014.2
20260506152757 48 55 7.0 9.0 0.00 0.00 0.00 67 1014.0
20260506152254 47 82 11.0 13.0 0.00 0.00 0.00 67 1013.6
20260506151753 47 116 7.0 10.0 0.00 0.00 0.00 67 1013.7
20260506151249 47 120 12.0 16.0 0.00 0.00 0.00 67 1014.0
20260506150746 47 112 12.0 17.0 0.00 0.00 0.00 67 1013.9
20260506150243 47 95 12.0 18.0 0.00 0.00 0.00 67 1013.8
20260506145740 46 101 8.0 16.0 0.00 0.00 0.00 68 1014.1
20260506145236 46 88 9.0 15.0 0.00 0.00 0.00 68 1013.8
20260506144734 46 121 15.0 17.0 0.00 0.00 0.00 68 1013.8
20260506144231 46 113 9.0 17.0 0.00 0.00 0.00 68 1013.9
20260506143728 45 110 17.0 17.0 0.00 0.00 0.00 70 1013.3
20260506143226 45 119 11.0 17.0 0.00 0.00 0.00 69 1013.3
20260506142724 46 91 12.0 18.0 0.00 0.00 0.00 69 1013.2
20260506142222 46 117 15.0 23.0 0.00 0.00 0.00 69 1013.5
20260506141720 45 119 14.0 22.0 0.00 0.00 0.00 70 1013.0
20260506141218 46 124 13.0 23.0 0.00 0.00 0.00 68 1013.0
20260506140715 45 118 14.0 19.0 0.00 0.00 0.00 70 1012.9
20260506140212 45 119 14.0 20.0 0.00 0.00 0.00 70 1012.8
20260506135708 45 122 13.0 22.0 0.00 0.00 0.00 70 1013.0
20260506135205 44 119 15.0 24.0 0.00 0.00 0.00 71 1013.0
20260506134702 44 119 18.0 21.0 0.00 0.00 0.00 70 1013.0
20260506134158 44 117 19.0 25.0 0.00 0.00 0.00 71 1013.0
20260506133655 44 120 15.0 20.0 0.00 0.00 0.00 71 1013.2
20260506133151 43 120 24.0 24.0 0.00 0.00 0.00 72 1013.2
20260506132649 43 132 22.0 26.0 0.00 0.00 0.00 72 1013.3
20260506132146 43 124 24.0 25.0 0.00 0.00 0.00 72 1013.5
20260506131644 43 122 17.0 23.0 0.00 0.00 0.00 71 1013.6
20260506131139 43 98 13.0 15.0 0.00 0.00 0.00 71 1013.9
20260506130636 43 103 11.0 17.0 0.00 0.00 0.00 72 1013.8
20260506130134 43 94 8.0 19.0 0.00 0.00 0.00 72 1013.8
20260506125632 43 110 8.0 19.0 0.00 0.00 0.00 72 1013.6
20260506125129 43 114 11.0 14.0 0.00 0.00 0.00 72 1013.6
20260506124627 42 118 17.0 20.0 0.00 0.00 0.00 73 1013.3
20260506124125 42 116 14.0 16.0 0.00 0.00 0.00 73 1013.5
20260506123622 42 96 13.0 17.0 0.00 0.00 0.00 73 1013.9
20260506123121 42 101 9.0 17.0 0.00 0.00 0.00 73 1013.7
20260506122617 42 96 9.0 18.0 0.00 0.00 0.00 73 1013.5
20260506122115 42 114 14.0 24.0 0.00 0.00 0.00 74 1013.5
20260506121612 42 113 17.0 25.0 0.00 0.00 0.00 74 1013.5
20260506121109 42 124 16.0 20.0 0.00 0.00 0.00 74 1013.2
20260506120607 42 114 11.0 19.0 0.00 0.00 0.00 74 1013.2
20260506120104 42 93 10.0 18.0 0.00 0.00 0.00 74 1013.0
20260506115602 42 93 10.0 20.0 0.00 0.00 0.00 74 1012.9
20260506115100 42 110 11.0 19.0 0.00 0.00 0.00 74 1013.0
20260506114557 42 97 18.0 20.0 0.00 0.00 0.00 74 1012.8
20260506114055 42 99 13.0 20.0 0.00 0.00 0.00 73 1012.9
20260506113553 42 100 10.0 15.0 0.00 0.00 0.00 74 1012.7
20260506113050 42 89 13.0 20.0 0.00 0.00 0.00 74 1012.8
20260506112546 42 99 12.0 21.0 0.00 0.00 0.00 75 1012.2
20260506112044 42 93 18.0 22.0 0.00 0.00 0.00 75 1012.6
20260506111542 42 98 13.0 24.0 0.00 0.00 0.00 76 1012.5
20260506111039 42 102 19.0 22.0 0.00 0.00 0.00 78 1012.5
20260506110536 42 87 15.0 21.0 0.00 0.00 0.00 80 1012.7
20260506110033 42 101 11.0 20.0 0.00 0.00 0.00 82 1012.8
20260506105529 41 91 10.0 21.0 0.00 0.00 0.00 83 1012.7
20260506105027 42 98 14.0 22.0 0.00 0.00 0.00 84 1012.9
20260506104525 41 87 15.0 22.0 0.00 0.00 0.00 84 1012.6
20260506104022 41 88 18.0 23.0 0.00 0.00 0.00 86 1012.5
20260506103519 41 69 18.0 22.0 0.00 0.00 0.00 86 1012.7
20260506103016 41 82 13.0 22.0 0.00 0.00 0.00 86 1012.8
20260506102515 41 72 13.0 21.0 0.00 0.00 0.00 85 1012.5
20260506102011 41 80 13.0 23.0 0.00 0.00 0.00 85 1012.7
20260506101508 42 71 16.0 24.0 0.00 0.00 0.00 85 1012.7
20260506101005 42 81 14.0 22.0 0.00 0.00 0.00 85 1012.6
20260506100503 42 97 18.0 20.0 0.00 0.00 0.00 85 1012.2
20260506100001 42 67 21.0 22.0 0.00 0.00 0.00 84 1011.9
20260506095459 42 75 20.0 25.0 0.00 0.00 0.00 84 1011.9
20260506094955 43 79 17.0 25.0 0.00 0.00 0.00 82 1011.9
20260506094454 44 106 18.0 24.0 0.00 0.00 0.00 82 1011.8
20260506093951 44 92 13.0 18.0 0.00 0.00 0.00 82 1011.3
20260506093449 44 79 11.0 15.0 0.00 0.00 0.00 81 1011.6
20260506092946 44 102 17.0 19.0 0.00 0.00 0.00 82 1011.7
20260506092444 44 84 11.0 24.0 0.00 0.00 0.00 82 1011.3
20260506091940 44 87 11.0 18.0 0.00 0.00 0.00 81 1011.5
20260506091439 44 75 9.0 17.0 0.00 0.00 0.00 82 1011.1
20260506090936 44 82 15.0 17.0 0.00 0.00 0.00 82 1011.3
20260506090433 44 74 13.0 20.0 0.00 0.00 0.00 81 1011.1
20260506085930 44 78 15.0 20.0 0.00 0.00 0.00 80 1011.3
20260506085427 44 75 16.0 22.0 0.00 0.00 0.00 80 1011.3
20260506084923 44 69 15.0 19.0 0.00 0.00 0.00 79 1011.2
20260506084420 45 77 19.0 20.0 0.00 0.00 0.00 79 1011.1
20260506083916 45 97 16.0 20.0 0.00 0.00 0.00 79 1011.0
20260506083414 45 60 17.0 19.0 0.00 0.00 0.00 79 1011.1
20260506082911 45 66 13.0 17.0 0.00 0.00 0.00 79 1011.3
20260506082408 45 69 12.0 20.0 0.00 0.00 0.00 79 1011.1
20260506081903 45 76 13.0 21.0 0.00 0.00 0.00 79 1011.0
20260506081402 45 76 11.0 19.0 0.00 0.00 0.00 78 1010.9
20260506080859 45 73 17.0 20.0 0.00 0.00 0.00 78 1011.0
20260506080355 45 68 17.0 21.0 0.00 0.00 0.00 78 1010.9
20260506073339 44 82 11.0 20.0 0.00 0.00 0.00 79 1010.1
20260506072836 44 84 15.0 19.0 0.00 0.00 0.00 79 1010.2
20260506072334 44 72 14.0 17.0 0.00 0.00 0.00 80 1010.6
20260506071831 43 76 12.0 16.0 0.00 0.00 0.00 80 1010.5
20260506071330 43 70 12.0 15.0 0.00 0.00 0.00 81 1010.7
20260506070826 43 39 11.0 13.0 0.00 0.00 0.00 81 1011.5
20260506070323 43 41 9.0 14.0 0.00 0.00 0.00 81 1011.3
20260506062300 42 50 10.0 13.0 0.00 0.00 0.00 82 1010.8
20260506061756 42 56 11.0 16.0 0.00 0.00 0.00 81 1010.7
20260506061253 42 58 8.0 15.0 0.00 0.00 0.00 81 1010.8
20260506060751 42 55 12.0 14.0 0.00 0.00 0.00 80 1010.7
20260506060249 43 34 13.0 17.0 0.00 0.00 0.00 80 1010.7
20260506051220 44 68 15.0 21.0 0.00 0.00 0.00 76 1009.9
20260506050719 45 83 13.0 20.0 0.00 0.00 0.00 75 1009.7
20260506050215 45 86 16.0 19.0 0.00 0.00 0.00 74 1009.3
20260506044707 45 88 15.0 18.0 0.00 0.00 0.00 72 1009.6
20260506044203 45 87 8.0 17.0 0.00 0.00 0.00 72 1009.5
20260506043701 46 92 12.0 19.0 0.00 0.00 0.00 71 1009.3
20260506043158 46 83 11.0 17.0 0.00 0.00 0.00 71 1009.6
20260506042658 46 91 11.0 18.0 0.00 0.00 0.00 70 1009.2
20260506042155 46 93 15.0 22.0 0.00 0.00 0.00 69 1009.2
20260506041653 46 79 11.0 18.0 0.00 0.00 0.00 69 1009.5
20260506041149 47 85 12.0 20.0 0.00 0.00 0.00 68 1009.6
20260506040647 47 85 14.0 19.0 0.00 0.00 0.00 67 1009.5
20260506040138 47 89 11.0 20.0 0.00 0.00 0.00 67 1009.3
20260506035636 47 97 14.0 18.0 0.00 0.00 0.00 66 1009.5
20260506035132 47 88 11.0 21.0 0.00 0.00 0.00 65 1009.3
20260506034629 48 80 11.0 17.0 0.00 0.00 0.00 65 1009.7
20260506034126 48 80 11.0 19.0 0.00 0.00 0.00 65 1009.2
20260506033623 48 80 20.0 20.0 0.00 0.00 0.00 64 1009.1
20260506033120 48 69 18.0 20.0 0.00 0.00 0.00 64 1009.1
20260506032618 48 67 12.0 19.0 0.00 0.00 0.00 63 1009.2
20260506032114 49 63 12.0 17.0 0.00 0.00 0.00 63 1009.2
20260506031611 49 76 12.0 18.0 0.00 0.00 0.00 62 1008.9
20260506031108 50 81 13.0 17.0 0.00 0.00 0.00 61 1008.7
20260506030607 50 76 13.0 17.0 0.00 0.00 0.00 61 1009.0
20260506030104 50 94 16.0 21.0 0.00 0.00 0.00 60 1008.8
20260506025601 50 78 15.0 19.0 0.00 0.00 0.00 60 1008.7
20260506025056 50 77 9.0 17.0 0.00 0.00 0.00 59 1008.5
20260506024554 51 83 12.0 17.0 0.00 0.00 0.00 59 1008.6
20260506024050 51 81 9.0 18.0 0.00 0.00 0.00 58 1008.6
20260506023546 51 97 15.0 21.0 0.00 0.00 0.00 58 1008.6
20260506023044 51 75 14.0 21.0 0.00 0.00 0.00 57 1008.2
20260506022541 51 91 11.0 20.0 0.00 0.00 0.00 56 1008.1
20260506022039 52 85 17.0 21.0 0.00 0.00 0.00 56 1008.0
20260506021536 52 70 14.0 20.0 0.00 0.00 0.00 55 1008.0
20260506021033 52 70 16.0 20.0 0.00 0.00 0.00 55 1008.3
20260506020531 53 62 15.0 26.0 0.00 0.00 0.00 54 1008.1
20260506020028 53 60 14.0 21.0 0.00 0.00 0.00 54 1008.2
20260506015525 53 51 15.0 25.0 0.00 0.00 0.00 53 1008.0
20260506015022 54 49 13.0 22.0 0.00 0.00 0.00 52 1008.1
20260506014519 54 29 17.0 22.0 0.00 0.00 0.00 52 1008.2
20260506014015 54 35 13.0 21.0 0.00 0.00 0.00 52 1008.1
20260506013514 55 39 17.0 21.0 0.00 0.00 0.00 51 1008.0
20260506013010 55 53 15.0 23.0 0.00 0.00 0.00 51 1007.8
20260506012506 55 51 14.0 21.0 0.00 0.00 0.00 50 1007.3
20260506012003 55 61 17.0 21.0 0.00 0.00 0.00 50 1007.4
20260506011501 55 38 13.0 23.0 0.00 0.00 0.00 50 1007.3
20260506010957 56 39 20.0 28.0 0.00 0.00 0.00 50 1007.2
20260506010456 56 52 14.0 20.0 0.00 0.00 0.00 50 1007.1